User: anonymous   Login
Location: Caltech
(34.1382°N, 118.1253°W)
Time: 22:54:10
(UTC-08:00)
Language:

Cosmos 1975 - Orbit

View from above orbital plane
View from above orbital plane
View from above satellite
View from above satellite

Ground track
Ground track

The orbit data is extracted from the following two-line orbital elements,

1 19573U 88093A   16344.53334050  .00001152  00000-0  81310-4 0  9990
2 19573  82.5190 168.9447 0013449 221.0611 138.9604 15.03977335531301
Epoch (UTC): 09 December 2016 12:48:00
Eccentricity: 0.0013449
inclination: 82.5190°
perigee height: 545 km
apogee height: 564 km
right ascension of ascending node: 168.9447°
argument of perigee: 221.0611°
revolutions per day: 15.03977335
mean anomaly at epoch: 138.9604°
orbit number at epoch: 53130

The dashed part of the orbit path shows where the satellite is in the earth's shadow,  

DLR